Leakey, Texas, United States (78873)
Lat: 29.73N, Lon: 99.76W
Wx Zone: TXZ185
Local Info
Past Weather Observations for Wednesday, October 22, 2014

NOTE: This archive is for the closest National Weather Service station to Leakey. Information may differ from the station used for current weather conditions.

Click here for Long-term Archive

Time Weather Temperature Dewpoint Humidity Pressure Winds Precip Visibility
23:50
Partly Cloudy
61°F / 16°C 59°F / 15°C 94% 30.15 in
(1021 mb)
NNW 3.5 mph
(NNW 6 kph)
- 8SM
23:30
Clear
61°F / 16°C 61°F / 16°C 100% 30.18 in
(1022 mb)
NW 3.5 mph
(NW 6 kph)
- 7SM
23:10
Clear
61°F / 16°C 61°F / 16°C 100% 30.15 in
(1021 mb)
Calm - 8SM
22:50
Partly Cloudy
63°F / 17°C 61°F / 16°C 94% 30.15 in
(1021 mb)
Calm - 10SM
22:30
Mostly Cloudy
63°F / 17°C 61°F / 16°C 94% 30.15 in
(1021 mb)
Calm - 10SM
22:10
Mostly Cloudy
63°F / 17°C 61°F / 16°C 94% 30.15 in
(1021 mb)
SE 5.8 mph
(SE 9 kph)
- 10SM
21:50
Partly Cloudy
61°F / 16°C 61°F / 16°C 100% 30.15 in
(1021 mb)
E 5.8 mph
(E 9 kph)
0.02 in
(0.51 mm)
10SM
21:30
Mostly Cloudy
Light Rain
61°F / 16°C 61°F / 16°C 100% 30.15 in
(1021 mb)
ENE 5.8 mph
(ENE 9 kph)
0.01 in
(0.25 mm)
5SM
21:10
Mostly Cloudy
Light Rain
61°F / 16°C 61°F / 16°C 100% 30.15 in
(1021 mb)
E 5.8 mph
(E 9 kph)
- 5SM
20:50
Mostly Cloudy
Light Rain
61°F / 16°C 59°F / 15°C 94% 30.15 in
(1021 mb)
NNE 5.8 mph
(NNE 9 kph)
0.06 in
(1.52 mm)
5SM
20:30
Mostly Cloudy
Rain
61°F / 16°C 61°F / 16°C 100% 30.15 in
(1021 mb)
Calm 0.03 in
(0.76 mm)
5SM
20:10
Partly Cloudy
Light Rain
61°F / 16°C 61°F / 16°C 100% 30.15 in
(1021 mb)
Calm 0.01 in
(0.25 mm)
7SM
19:50
Partly Cloudy
Light Rain
63°F / 17°C 61°F / 16°C 94% 30.15 in
(1021 mb)
NE 4.6 mph
(NE 7 kph)
0.01 in
(0.25 mm)
5SM
19:30
Clear
Light Rain
63°F / 17°C 61°F / 16°C 94% 30.15 in
(1021 mb)
Calm - 8SM
19:10
Partly Cloudy
63°F / 17°C 61°F / 16°C 94% 30.15 in
(1021 mb)
Calm - 7SM
18:50
Mostly Cloudy
Light Rain
63°F / 17°C 61°F / 16°C 94% 30.15 in
(1021 mb)
Calm 0.04 in
(1.02 mm)
8SM
18:30
Mostly Cloudy
Rain
63°F / 17°C 61°F / 16°C 94% 30.15 in
(1021 mb)
Calm 0.02 in
(0.51 mm)
6SM
18:10
Overcast
Rain
63°F / 17°C 61°F / 16°C 94% 30.15 in
(1021 mb)
Calm 0.01 in
(0.25 mm)
5SM
17:50
Overcast
Rain
64°F / 18°C 61°F / 16°C 88% 30.15 in
(1021 mb)
Calm 0.04 in
(1.02 mm)
3SM
17:30
Mostly Cloudy
Light Rain
64°F / 18°C 61°F / 16°C 88% 30.15 in
(1021 mb)
Calm 0.02 in
(0.51 mm)
5SM
17:10
Partly Cloudy
Light Rain
66°F / 19°C 59°F / 15°C 78% 30.12 in
(1020 mb)
SSE 4.6 mph
(SSE 7 kph)
- 5SM
16:50
Clear
Light Rain
72°F / 22°C 55°F / 13°C 57% 30.12 in
(1020 mb)
Calm - 10SM
16:30
Clear
72°F / 22°C 52°F / 11°C 50% 30.12 in
(1020 mb)
Calm - 10SM
16:10
Clear
72°F / 22°C 52°F / 11°C 50% 30.12 in
(1020 mb)
Calm - 10SM
15:50
Partly Cloudy
73°F / 23°C 52°F / 11°C 47% 30.12 in
(1020 mb)
Calm - 10SM
15:30
Partly Cloudy
73°F / 23°C 52°F / 11°C 47% 30.12 in
(1020 mb)
S 4.6 mph
(S 7 kph)
- 10SM
15:10
Mostly Cloudy
73°F / 23°C 52°F / 11°C 47% 30.12 in
(1020 mb)
S 5.8 mph
(S 9 kph)
- 10SM
14:50
Mostly Cloudy
73°F / 23°C 50°F / 10°C 44% 30.12 in
(1020 mb)
SSE 6.9 mph
(SSE 11 kph)
- 10SM
14:30
Clear
75°F / 24°C 52°F / 11°C 44% 30.12 in
(1020 mb)
Calm - 10SM
14:10
Partly Cloudy
73°F / 23°C 52°F / 11°C 47% 30.12 in
(1020 mb)
SSE 9.2 mph
(SSE 15 kph)
- 10SM
13:50
Partly Cloudy
73°F / 23°C 52°F / 11°C 47% 30.12 in
(1020 mb)
SSE 6.9 mph
(SSE 11 kph)
- 10SM
13:30
Partly Cloudy
73°F / 23°C 50°F / 10°C 44% 30.12 in
(1020 mb)
SE 10.4 mph
(SE 17 kph)
- 10SM
13:10
Mostly Cloudy
73°F / 23°C 48°F / 9°C 41% 30.15 in
(1021 mb)
SE 9.2 mph
(SE 15 kph)
- 10SM
12:50
Partly Cloudy
75°F / 24°C 50°F / 10°C 41% 30.15 in
(1021 mb)
S 8.1 mph
(S 13 kph)
- 10SM
12:30
Partly Cloudy
73°F / 23°C 48°F / 9°C 41% 30.15 in
(1021 mb)
SE 11.5 mph
(SE 19 kph)
- 10SM
12:10
Partly Cloudy
75°F / 24°C 48°F / 9°C 39% 30.15 in
(1021 mb)
SE 8.1 mph
(SE 13 kph)
- 10SM
11:50
Partly Cloudy
73°F / 23°C 50°F / 10°C 44% 30.15 in
(1021 mb)
SE 8.1 mph
(SE 13 kph)
- 10SM
11:30
Partly Cloudy
72°F / 22°C 50°F / 10°C 47% 30.15 in
(1021 mb)
SE 6.9 mph
(SE 11 kph)
- 10SM
11:10
Partly Cloudy
70°F / 21°C 52°F / 11°C 53% 30.18 in
(1022 mb)
SE 5.8 mph
(SE 9 kph)
- 10SM
10:50
Mostly Cloudy
70°F / 21°C 50°F / 10°C 50% 30.18 in
(1022 mb)
SSE 6.9 mph
(SSE 11 kph)
- 10SM
10:30
Mostly Cloudy
70°F / 21°C 48°F / 9°C 46% 30.18 in
(1022 mb)
SSE 9.2 mph
(SSE 15 kph)
- 10SM
10:10
Partly Cloudy
70°F / 21°C 52°F / 11°C 53% 30.18 in
(1022 mb)
SSE 9.2 mph
(SSE 15 kph)
- 10SM
09:50
Mostly Cloudy
70°F / 21°C 52°F / 11°C 53% 30.18 in
(1022 mb)
SE 9.2 mph
(SE 15 kph)
- 10SM
09:30
Mostly Cloudy
70°F / 21°C 52°F / 11°C 53% 30.18 in
(1022 mb)
SE 9.2 mph
(SE 15 kph)
- 10SM
09:10
Mostly Cloudy
66°F / 19°C 54°F / 12°C 64% 30.18 in
(1022 mb)
SE 6.9 mph
(SE 11 kph)
- 10SM
08:50
Partly Cloudy
66°F / 19°C 52°F / 11°C 60% 30.18 in
(1022 mb)
SE 6.9 mph
(SE 11 kph)
- 10SM
08:30
Mostly Cloudy
64°F / 18°C 52°F / 11°C 64% 30.15 in
(1021 mb)
SE 8.1 mph
(SE 13 kph)
- 10SM
08:10
Mostly Cloudy
64°F / 18°C 52°F / 11°C 64% 30.15 in
(1021 mb)
SE 10.4 mph
(SE 17 kph)
- 10SM
07:50
Mostly Cloudy
64°F / 18°C 52°F / 11°C 64% 30.12 in
(1020 mb)
E 9.2 mph
(E 15 kph)
- 10SM
07:30
Mostly Cloudy
Light Rain
64°F / 18°C 52°F / 11°C 64% 30.12 in
(1020 mb)
E 9.2 mph
(E 15 kph)
- 10SM
07:10
Overcast
64°F / 18°C 50°F / 10°C 60% 30.12 in
(1020 mb)
E 6.9 mph
(E 11 kph)
- 10SM
06:50
Overcast
64°F / 18°C 54°F / 12°C 68% 30.12 in
(1020 mb)
ESE 6.9 mph
(ESE 11 kph)
- 10SM
06:30
Mostly Cloudy
64°F / 18°C 55°F / 13°C 73% 30.12 in
(1020 mb)
ESE 5.8 mph
(ESE 9 kph)
- 10SM
06:10
Mostly Cloudy
64°F / 18°C 55°F / 13°C 73% 30.12 in
(1020 mb)
SE 5.8 mph
(SE 9 kph)
- 10SM
05:50
Overcast
64°F / 18°C 57°F / 14°C 78% 30.12 in
(1020 mb)
SE 6.9 mph
(SE 11 kph)
- 10SM
05:30
Overcast
64°F / 18°C 57°F / 14°C 78% 30.12 in
(1020 mb)
SE 5.8 mph
(SE 9 kph)
- 10SM
05:10
Mostly Cloudy
64°F / 18°C 59°F / 15°C 83% 30.12 in
(1020 mb)
SE 6.9 mph
(SE 11 kph)
- 10SM
04:50
Mostly Cloudy
64°F / 18°C 57°F / 14°C 78% 30.12 in
(1020 mb)
SE 4.6 mph
(SE 7 kph)
- 10SM
04:30
Mostly Cloudy
64°F / 18°C 57°F / 14°C 78% 30.09 in
(1019 mb)
Calm - 10SM
04:10
Mostly Cloudy
63°F / 17°C 57°F / 14°C 83% 30.09 in
(1019 mb)
Calm - 10SM
03:50
Mostly Cloudy
63°F / 17°C 55°F / 13°C 77% 30.09 in
(1019 mb)
Calm - 10SM
03:30
Partly Cloudy
63°F / 17°C 55°F / 13°C 77% 30.09 in
(1019 mb)
Calm - 10SM
03:10
Partly Cloudy
63°F / 17°C 54°F / 12°C 73% 30.09 in
(1019 mb)
Calm - 10SM
02:50
Partly Cloudy
61°F / 16°C 55°F / 13°C 83% 30.09 in
(1019 mb)
Calm 0.01 in
(0.25 mm)
10SM
02:30
Mostly Cloudy
61°F / 16°C 54°F / 12°C 77% 30.09 in
(1019 mb)
Calm 0.01 in
(0.25 mm)
10SM
02:10
Mostly Cloudy
Light Rain
63°F / 17°C 54°F / 12°C 73% 30.09 in
(1019 mb)
SE 4.6 mph
(SE 7 kph)
0.01 in
(0.25 mm)
5SM
01:50
Mostly Cloudy
Light Rain
64°F / 18°C 52°F / 11°C 64% 30.09 in
(1019 mb)
SE 5.8 mph
(SE 9 kph)
- 8SM
01:30
Clear
Light Rain
66°F / 19°C 50°F / 10°C 56% 30.09 in
(1019 mb)
SE 8.1 mph
(SE 13 kph)
- 9SM
01:10
Partly Cloudy
68°F / 20°C 50°F / 10°C 53% 30.09 in
(1019 mb)
SE 6.9 mph
(SE 11 kph)
- 10SM
00:50
Mostly Cloudy
68°F / 20°C 50°F / 10°C 53% 30.09 in
(1019 mb)
ESE 8.1 mph
(ESE 13 kph)
- 10SM
00:30
Partly Cloudy
68°F / 20°C 52°F / 11°C 56% 30.09 in
(1019 mb)
ESE 8.1 mph
(ESE 13 kph)
- 10SM
00:10
Partly Cloudy
70°F / 21°C 52°F / 11°C 53% 30.09 in
(1019 mb)
SE 6.9 mph
(SE 11 kph)
- 10SM
Time Weather Temperature Dewpoint Humidity Pressure Winds Precip Visibility


Weather for websites

WeatherForYou.com, LLC is not responsible for any damages or problems caused by this service. Current weather conditions are obtained from the closest station including government and personal stations which may have varying degrees of accuracy. Weather forecasts are derived from the NOAA NDFD. Like all things, this site belongs to Jesus Christ... He just trusts me to maintain it. If you have any questions or comments email webmaster@weatherforyou.com

Copyright © 2014, WeatherForYou.com LLC. All rights reserved.